This is the latest recevied weather packets stored in our database for station/object KF8LO-1. If no packets are shown the sender has not sent any weather packets the latest 10 day(s).
| Time | Temp. | Humidity | Pressure | Rain* | Wind** | Luminosity | Snow |
|---|---|---|---|---|---|---|---|
| 1777567997 | 7.78° C | 68% | 0 hPa | 0 mm | - | - | - |
| 1777567697 | 7.78° C | 68% | 0 hPa | 0 mm | - | - | - |
| 1777567397 | 7.78° C | 70% | 0 hPa | 0 mm | - | - | - |
| 1777567097 | 7.22° C | 70% | 0 hPa | 0 mm | - | - | - |
| 1777566797 | 6.67° C | 72% | 0 hPa | 0 mm | - | - | - |
| 1777566497 | 6.67° C | 69% | 0 hPa | 0 mm | - | - | - |
| 1777566197 | 7.22° C | 68% | 0 hPa | 0 mm | - | - | - |
| 1777565897 | 7.22° C | 73% | 0 hPa | 0 mm | - | - | - |
| 1777565597 | 7.22° C | 71% | 0 hPa | 0 mm | - | - | - |
| 1777565297 | 7.22° C | 69% | 0 hPa | 0 mm | - | - | - |
| 1777564997 | 6.67° C | 75% | 0 hPa | 0 mm | - | - | - |
| 1777564697 | 6.67° C | 74% | 0 hPa | 0 mm | - | - | - |
| 1777564397 | 6.67° C | 76% | 0 hPa | 0 mm | - | - | - |
| 1777564097 | 6.11° C | 78% | 0 hPa | 0 mm | - | - | - |
| 1777563797 | 6.11° C | 77% | 0 hPa | 0 mm | - | - | - |
| 1777563497 | 6.11° C | 77% | 0 hPa | 0 mm | - | - | - |
| 1777563197 | 6.11° C | 79% | 0 hPa | 0 mm | - | - | - |
| 1777562897 | 6.11° C | 79% | 0 hPa | 0 mm | - | - | - |
| 1777562597 | 6.11° C | 76% | 0 hPa | 0 mm | - | - | - |
| 1777562297 | 6.67° C | 74% | 0 hPa | 0 mm | - | - | - |
| 1777561997 | 6.67° C | 75% | 0 hPa | 0 mm | - | - | - |
| 1777561697 | 6.67° C | 75% | 0 hPa | 0 mm | - | - | - |
| 1777561397 | 6.11° C | 76% | 0 hPa | 0 mm | - | - | - |
| 1777561098 | 6.11° C | 76% | 0 hPa | 0 mm | - | - | - |
| 1777560797 | 6.11° C | 76% | 0 hPa | 0 mm | - | - | - |
* Rain latest hour (hover to see other rain measurements)
** Current wind speed in m/s (hover to see current wind gust speed)